Flag for Canada Weather past 2 weeks in Stephenville, Newfoundland and Labrador, Canada

Now
55 °F

Partly sunny.


Feels Like: 52 °F
Forecast: 40 / 57 °F
Wind: 12 mph from Northeast

Location: Stephenville

Current Time: Jun 3, 2015 at 11:36:56 AM

Latest Report: Jun 3, 2015 at 10:30 AM


Visibility: 15 mi

Pressure: 30.23 "Hg

Humidity: 44%

Dew point: 34 °F

Location of StephenvilleLocation

Historic Weather in Stephenville — Graph

°F

Stephenville temperature yesterday

Maximum temperature yesterday: 50 °F (at 1:30 PM)
Minimum temperature yesterday: 30 °F (at 5:30 AM)
Average temperature yesterday: 42 °F

Past Weeks' High & Low Weather Summary

 TemperatureHumidityPressure
High66 °F (May 26, 10:30 AM)100% (May 21, 1:30 AM)30.45 "Hg (May 21, 1:30 AM)
Low30 °F (Jun 2, 5:30 AM)34% (May 22, 12:30 PM)29.36 "Hg (May 21, 12:30 AM)
Average48 °F79%29.99 "Hg
* Reported May 19 10:30 AM — Jun 3 10:30 AM, Stephenville, Weather by CustomWeather, © 2015

Note: Actual official high and low records may vary slightly from our data, if they occured in-between our weather recording intervals... More about our weather records

Advertising

Stephenville weather history for previous 24 hours

 ConditionsComfort  
Time TempWeatherWind HumidityBarometerVisibility
10:30 AM
Wed, Jun 3
55 °FPartly sunny.12 mph44%30.23 "Hg15 mi
9:30 AM52 °FPartly sunny.13 mph50%30.24 "Hg15 mi
8:30 AM48 °FPartly sunny.12 mph54%30.25 "Hg15 mi
7:30 AM46 °FPartly sunny.6 mph62%30.26 "Hg15 mi
6:30 AM45 °FPartly sunny.8 mph61%30.25 "Hg15 mi
5:30 AM43 °FOvercast.3 mph66%30.27 "Hg15 mi
4:30 AM41 °FPartly cloudy.2 mph76%30.28 "Hg15 mi
3:30 AM39 °FMostly cloudy.5 mph87%30.29 "Hg15 mi
2:30 AM41 °FPartly cloudy.3 mph87%30.31 "Hg15 mi
1:30 AM43 °FPassing clouds.2 mph81%30.32 "Hg15 mi
12:30 AM43 °FMostly cloudy.6 mph81%30.33 "Hg15 mi
11:30 PM
Tue, Jun 2
43 °FPassing clouds.2 mph81%30.34 "Hg15 mi
10:30 PM43 °FPassing clouds.3 mph81%30.35 "Hg15 mi
9:30 PM43 °FPartly sunny.3 mph81%30.35 "Hg15 mi
8:30 PM45 °FPartly sunny.6 mph76%30.35 "Hg15 mi
7:30 PM45 °FOvercast.9 mph76%30.36 "Hg15 mi
6:30 PM46 °FOvercast.13 mph71%30.36 "Hg15 mi
5:30 PM46 °FOvercast.14 mph71%30.36 "Hg15 mi
4:30 PM48 °FOvercast.16 mph66%30.36 "Hg15 mi
3:30 PM50 °FOvercast.15 mph71%30.37 "Hg15 mi
2:30 PM50 °FOvercast.15 mph62%30.37 "Hg15 mi
1:30 PM50 °FPartly sunny.13 mph62%30.38 "Hg15 mi
12:30 PM48 °FOvercast.9 mph66%30.40 "Hg15 mi
11:30 AM46 °FPartly sunny.5 mph57%30.41 "Hg15 mi
Weather by CustomWeather, © 2015

See weather overviewHow to use our weather pages